DW6386 Weather Reports


time (UTC)temp
F
wind
direction
speed
knots
gust
knots
rain 1hr
in
rain 24hr
in
rain mn
in
humidity
%
barometer
mb
20260905030020 77 94 0.0 0.0 0.00 0.00 0.00 87 1012.6
20260905024538 78 94 0.0 0.0 0.00 0.00 0.00 86 1012.6
20260905023022 78 94 0.0 0.0 0.00 0.00 0.00 87 1012.8
20260905021518 79 94 0.0 0.0 0.00 0.00 0.00 86 1012.8
20260905020017 79 94 0.0 0.0 0.00 0.00 0.00 85 1012.8
20260905014516 80 94 0.0 0.0 0.00 0.00 0.00 86 1012.8
20260905013018 80 94 0.0 0.0 0.00 0.00 0.00 84 1012.6
20260905011515 80 94 0.0 0.0 0.00 0.00 0.00 83 1012.6
20260905010014 81 94 0.0 0.0 0.00 0.00 0.00 81 1012.4
20260905004514 82 94 0.0 0.0 0.00 0.00 0.00 78 1012.4
20260905003015 83 94 0.0 0.0 0.00 0.00 0.00 77 1012.3
20260905001513 84 94 0.0 0.0 0.00 0.00 0.00 74 1012.2
20260905000013 85 94 0.0 0.0 0.00 0.00 0.00 75 1012.1
20260904234514 87 94 0.0 0.0 0.00 0.00 0.00 72 1012.1
20260904233012 88 94 0.0 0.0 0.00 0.00 0.00 67 1012.1
20260904231511 90 94 0.0 0.0 0.00 0.00 0.00 65 1012.0
20260904230011 91 92 0.0 0.9 0.00 0.00 0.00 62 1011.9
20260904224510 92 84 0.0 0.9 0.00 0.00 0.00 59 1011.7
20260904223010 92 91 0.0 0.0 0.00 0.00 0.00 60 1011.5
20260904221509 93 85 0.0 0.9 0.00 0.00 0.00 58 1011.5
20260904220009 93 79 0.0 1.7 0.00 0.00 0.00 56 1011.5
20260904214507 93 47 0.0 2.6 0.00 0.00 0.00 55 1011.6
20260904213007 94 180 0.0 3.5 0.00 0.00 0.00 53 1011.6
20260904211505 95 265 0.0 1.7 0.00 0.00 0.00 53 1011.8
20260904210004 95 99 0.0 3.5 0.00 0.00 0.00 52 1011.9
20260904204503 96 278 0.0 5.2 0.00 0.00 0.00 51 1012.0
20260904203007 97 94 0.9 4.3 0.00 0.00 0.00 47 1012.2
20260904201626 97 59 0.0 2.6 0.00 0.00 0.00 50 1012.4
20260904200117 97 236 0.0 3.5 0.00 0.00 0.00 50 1012.6
20260904194556 97 148 0.0 2.6 0.00 0.00 0.00 48 1012.9
20260904193053 98 278 0.0 2.6 0.00 0.00 0.00 49 1013.3
20260904191550 98 340 0.9 2.6 0.00 0.00 0.00 51 1013.5
20260904190048 97 34 0.0 0.9 0.00 0.00 0.00 52 1013.6
20260904184547 93 202 0.0 1.7 0.00 0.00 0.00 60 1013.7
20260904183047 89 148 0.0 0.9 0.00 0.00 0.00 61 1014.1
20260904181544 90 151 0.0 0.0 0.00 0.00 0.00 59 1014.3
20260904180045 93 131 0.9 4.3 0.00 0.00 0.00 58 1014.5
20260904174547 95 99 0.9 5.2 0.00 0.00 0.00 57 1014.6
20260904173040 96 78 0.9 3.5 0.00 0.00 0.00 59 1014.6
20260904171605 94 226 1.7 4.3 0.00 0.00 0.00 61 1014.7
20260904170033 93 297 0.9 5.2 0.00 0.00 0.00 62 1014.8
20260904164531 93 252 1.7 4.3 0.00 0.00 0.00 62 1015.0
20260904163045 93 181 0.0 3.5 0.00 0.00 0.00 63 1015.3
20260904161528 93 65 0.0 1.7 0.00 0.00 0.00 63 1015.3
20260904160025 91 250 0.0 2.6 0.00 0.00 0.00 65 1015.5
20260904154521 92 240 0.0 2.6 0.00 0.00 0.00 64 1015.6
20260904153025 91 146 0.0 2.6 0.00 0.00 0.00 66 1015.5
20260904151528 89 126 0.0 2.6 0.00 0.00 0.00 68 1015.6
20260904150014 88 136 0.0 0.9 0.00 0.00 0.00 70 1015.5
20260904144509 87 231 0.0 1.7 0.00 0.00 0.00 70 1015.5
20260904143004 87 224 0.0 2.6 0.00 0.00 0.00 74 1015.3
20260904141501 85 196 0.0 2.6 0.00 0.00 0.00 76 1015.4
20260904140059 85 257 0.0 1.7 0.00 0.00 0.00 77 1015.4
20260904134558 83 254 0.0 1.7 0.00 0.00 0.00 80 1015.4
20260904133105 83 268 0.0 1.7 0.00 0.00 0.00 80 1015.4
20260904131552 82 235 0.0 1.7 0.00 0.00 0.00 82 1015.4
20260904130054 82 176 0.0 0.0 0.00 0.00 0.00 88 1015.4
20260904124544 80 124 0.0 0.0 0.00 0.00 0.00 94 1015.4
20260904123043 77 124 0.0 0.0 0.00 0.00 0.00 98 1015.4
20260904121537 75 124 0.0 0.0 0.00 0.00 0.00 98 1015.2
20260904120044 73 124 0.0 0.0 0.00 0.00 0.00 98 1015.1
20260904114535 72 124 0.0 0.0 0.00 0.00 0.00 98 1015.0
20260904113036 71 124 0.0 0.0 0.00 0.00 0.00 97 1015.0
20260904111531 72 124 0.0 0.0 0.00 0.00 0.00 98 1014.7
20260904110030 71 124 0.0 0.0 0.00 0.00 0.00 97 1014.5
20260904104530 72 124 0.0 0.0 0.00 0.00 0.00 97 1014.3
20260904103028 72 124 0.0 0.0 0.00 0.00 0.00 97 1014.1
20260904101531 72 124 0.0 0.0 0.00 0.00 0.00 97 1014.0
20260904100026 72 124 0.0 0.0 0.00 0.00 0.00 97 1014.2
20260904094524 72 124 0.0 0.0 0.00 0.00 0.00 97 1014.1
20260904093024 72 124 0.0 0.0 0.00 0.00 0.00 97 1014.0
20260904091523 72 124 0.0 0.0 0.00 0.00 0.00 96 1013.8
20260904090026 72 124 0.0 0.0 0.00 0.00 0.00 96 1013.8
20260904084523 73 124 0.0 0.0 0.00 0.00 0.00 96 1013.7
20260904083024 73 124 0.0 0.0 0.00 0.00 0.00 96 1013.8
20260904081518 73 124 0.0 0.0 0.00 0.00 0.00 96 1013.7
20260904080019 73 124 0.0 0.0 0.00 0.00 0.00 96 1013.7
20260904074522 73 124 0.0 0.0 0.00 0.00 0.00 95 1013.7
20260904073016 73 124 0.0 0.0 0.00 0.00 0.00 95 1013.7
20260904071514 74 124 0.0 0.0 0.00 0.00 0.00 95 1013.6
20260904070015 74 124 0.0 0.0 0.00 0.00 0.00 95 1013.9
20260904064510 74 124 0.0 0.0 0.00 0.00 0.00 95 1013.9
20260904063009 74 124 0.0 0.0 0.00 0.00 0.00 94 1013.9
20260904061506 75 124 0.0 0.0 0.00 0.00 0.00 94 1014.0
20260904060006 75 122 0.0 0.0 0.00 0.00 0.00 94 1014.1
20260904054508 75 122 0.0 0.0 0.00 0.00 0.00 94 1014.3
20260904053002 75 122 0.0 0.0 0.00 0.00 0.00 94 1014.3
20260904051600 75 122 0.0 0.9 0.00 0.00 0.00 93 1014.4
20260904050059 76 122 0.0 0.0 0.00 0.00 0.00 93 1014.4
20260904044612 76 122 0.0 0.0 0.00 0.00 0.00 92 1014.5
20260904043059 76 122 0.0 0.0 0.00 0.00 0.00 92 1014.7
20260904041553 76 122 0.0 0.0 0.00 0.00 0.00 91 1014.5
20260904040057 77 122 0.0 0.0 0.00 0.00 0.00 91 1014.5
20260904034558 77 122 0.0 0.0 0.00 0.00 0.00 90 1014.7
20260904033053 77 122 0.0 0.0 0.00 0.00 0.00 90 1014.8
20260904031551 77 122 0.0 0.0 0.00 0.00 0.00 90 1014.9